Regional Weather Roundup
Issued by NWS

Home | Current Version | Previous Version | Text Only | Print | Product List | Glossary Off
Versions: 1 2 3 4 5 6 7 8 9 10 11 12 13 14 15 16 17 18 19 20 21 22 23 24 25 26 27 28 29 30 31 32 33 34 35 36 37 38 39 40 41 42 43 44 45 46 47 48 49 50

000
ASUS44 KMEG 282210
RWRTN
TENNESSEE HOURLY STATE WEATHER ROUNDUP
NATIONAL WEATHER SERVICE MEMPHIS TN
500 PM CDT WED SEP 28 2016

TNZ002-004-019-021-049-052-054-088>092-282300-
WEST TENNESSEE

CITY           SKY/WX    TMP DP  RH WIND       PRES   REMARKS
MEMPHIS INTL   MOSUNNY   87  54  32 NW15G24   29.88R
NWS MEMPHIS      N/A     86 N/A N/A MISG        N/A
JACKSON        PTSUNNY  N/A N/A N/A W8        29.89R
DYERSBURG      MOSUNNY  N/A N/A N/A MISG        N/A
UNION CITY     MOSUNNY   73  52  46 N16       29.93R
PARIS          MOSUNNY   72  52  49 N16       29.92R
HUNTINGDON     CLOUDY    73  54  49 N7G14     29.90R
LEXINGTON      PTSUNNY   79  54  41 N10       29.88R
$$

TNZ008-025-027-028-033-062-065-066-282300-
NORTH MIDDLE TENNESSEE

CITY           SKY/WX    TMP DP  RH WIND       PRES   REMARKS
NASHVILLE      CLOUDY    78  49  35 N21G26    29.88R
PORTLAND       CLOUDY    63  57  82 N8        29.91R
CLARKSVILLE    CLOUDY    72  51  47 N17G24    29.91R
SMYRNA         CLOUDY    80  48  32 W13       29.87R
COOKEVILLE     MOSUNNY   81  48  32 SW10      29.87S
GALLATIN       CLOUDY    72  55  56 NW13G22   29.91R
CROSSVILLE     SUNNY     76  42  29 W12G17    29.92S
$$

TNZ061-075-076-078-094-096-097-282300-
SOUTH MIDDLE TENNESSEE

CITY           SKY/WX    TMP DP  RH WIND       PRES   REMARKS
FAYETTEVILLE   SUNNY     82  45  26 SW9       29.90R
TULLAHOMA      SUNNY     81  39  22 SW10      29.91S
WINCHESTER     SUNNY     82  43  24 W8        29.90S
MCMINNVILLE    SUNNY     82  48  30 SW12      29.89S
COLUMBIA       MOSUNNY   81  48  32 SW9       29.86R
SHELBYVILLE    SUNNY     84  48  28 S13       29.89S
$$

TNZ017-018-042-046-047-282300-
NORTHEAST TENNESSEE

CITY           SKY/WX    TMP DP  RH WIND       PRES   REMARKS
TRI CITIES     MOSUNNY   79  43  27 SW8       29.89S
ELIZABETHTON   SUNNY     79  52  38 W7        29.89S
$$

TNZ012-013-036-069-073-074-282300-
CENTRAL EAST TENNESSEE

CITY           SKY/WX    TMP DP  RH WIND       PRES   REMARKS
KNOXVILLE      MOSUNNY   80  42  25 SW14      29.88F
OAK RIDGE      SUNNY     81  44  27 VRB5      29.89F
DOWNTOWN KNOXV SUNNY     82  45  26 W10G17    29.87F
GATLINBURG     SUNNY     82  41  23 W9        29.88S
MORRISTOWN     SUNNY     79  43  27 W9G17     29.89S
JACKSBORO      SUNNY     79  46  31 SW8G17    29.90S
$$

TNZ083-085-099-282300-
SOUTHEAST TENNESSEE

CITY           SKY/WX    TMP DP  RH WIND       PRES   REMARKS
CHATTANOOGA    MOSUNNY   84  42  22 W7        29.89F
$$

SKY/WX REPORTED AS FAIR MEANS FEW OR NO CLOUDS BELOW
12 THOUSAND FEET.





USA.gov is the U.S. government's official web portal to all federal, state and local government web resources and services.